GW4151 Weather Reports


time (UTC)temp
C
wind
direction
speed
KPH
gust
KPH
rain 1hr
cm
rain 24hr
cm
rain mn
cm
humidity
%
barometer
mb
20260831233826 27 226 3.2 9.7 0.00 0.61 0.61 78 993.3
20260831232324 27 214 4.8 9.7 0.00 0.61 0.61 77 992.9
20260831230823 27 213 6.4 9.7 0.00 0.61 0.61 78 993.1
20260831225318 27 239 4.8 9.7 0.00 0.61 0.61 78 993.4
20260831223815 27 205 9.7 12.9 0.00 0.61 0.61 77 993.2
20260831222315 27 193 1.6 4.8 0.00 0.61 0.61 77 992.5
20260831220811 28 190 4.8 11.3 0.00 0.61 0.61 74 992.6
20260831215309 28 157 6.4 11.3 0.00 0.61 0.61 71 992.9
20260831213804 29 205 6.4 12.9 0.00 0.61 0.61 68 992.9
20260831212306 30 180 6.4 12.9 0.00 0.61 0.61 63 992.8
20260831210803 29 182 6.4 16.1 0.00 0.61 0.61 67 992.8
20260831205305 28 240 3.2 9.7 0.00 0.61 0.61 71 992.8
20260831203800 26 139 9.7 17.7 0.89 0.61 0.61 77 992.6
20260831202300 26 254 6.4 12.9 0.36 0.46 0.46 80 993.1
20260831200800 26 200 1.6 9.7 0.00 0.41 0.41 83 993.2
20260831195258 26 205 3.2 4.8 0.00 0.41 0.41 87 993.2
20260831193754 25 181 3.2 6.4 0.00 0.41 0.41 91 992.7
20260831192251 25 182 0.0 1.6 0.18 0.33 0.33 93 993.8
20260831190750 25 185 1.6 1.6 0.43 0.30 0.30 93 993.5
20260831185246 25 172 3.2 6.4 0.18 0.05 0.05 86 993.9
20260831183741 26 172 3.2 3.2 0.00 0.03 0.03 84 993.9
20260831182241 26 164 0.0 0.0 0.00 0.03 0.03 79 994.2
20260831180737 26 208 0.0 3.2 0.00 0.03 0.03 76 994.0
20260831175233 27 223 3.2 6.4 0.00 0.03 0.03 74 993.9
20260831173729 27 154 3.2 6.4 0.00 0.03 0.03 75 994.3
20260831172225 28 170 6.4 16.1 0.00 0.03 0.03 73 994.2
20260831170725 28 222 8.0 12.9 0.00 0.03 0.03 70 994.2
20260831165225 27 227 4.8 6.4 0.00 0.03 0.03 73 994.5
20260831163723 26 210 6.4 11.3 0.00 0.03 0.03 76 994.9
20260831162223 26 257 4.8 11.3 0.00 0.03 0.03 80 995.0
20260831160720 25 174 3.2 6.4 0.00 0.03 0.03 82 995.1
20260831155216 24 289 4.8 14.5 0.00 0.03 0.03 86 995.1
20260831153712 23 208 6.4 11.3 0.00 0.03 0.03 90 995.4
20260831152212 22 202 3.2 6.4 0.00 0.03 0.03 91 995.5
20260831150707 22 180 1.6 3.2 0.00 0.03 0.03 93 995.3
20260831145203 22 157 6.4 9.7 0.13 0.03 0.03 91 995.5
20260831143659 22 151 3.2 4.8 0.00 0.00 0.00 89 996.1
20260831142158 23 129 3.2 4.8 0.00 0.00 0.00 85 995.7
20260831140658 23 176 3.2 6.4 0.00 0.00 0.00 84 995.0
20260831135158 23 155 6.4 14.5 0.00 0.00 0.00 84 995.2
20260831133654 22 164 1.6 6.4 0.00 0.00 0.00 87 995.4
20260831132150 23 214 8.0 12.9 0.00 0.00 0.00 87 995.2
20260831130648 22 180 1.6 4.8 0.00 0.00 0.00 90 995.4
20260831125143 22 221 3.2 3.2 0.00 0.00 0.00 89 995.4
20260831123641 22 165 3.2 6.4 0.00 0.00 0.00 86 995.7
20260831122136 22 180 3.2 11.3 0.00 0.00 0.00 87 995.4
20260831120632 22 171 3.2 6.4 0.00 0.00 0.00 87 995.5
20260831115130 22 200 0.0 3.2 0.00 0.00 0.00 89 995.3
20260831113630 21 145 3.2 6.4 0.00 0.00 0.00 91 994.9
20260831112125 21 130 9.7 12.9 0.00 0.00 0.00 92 994.7
20260831110624 20 138 0.0 0.0 0.00 0.00 0.00 96 994.5
20260831105119 20 143 1.6 3.2 0.00 0.00 0.00 97 994.3
20260831103618 20 160 0.0 1.6 0.00 0.00 0.00 97 994.7
20260831102115 20 186 0.0 0.0 0.00 0.00 0.00 97 994.7
20260831100613 20 169 0.0 1.6 0.00 0.00 0.00 97 994.8
20260831095113 20 174 0.0 0.0 0.00 0.00 0.00 97 994.9
20260831093612 20 177 0.0 0.0 0.00 0.00 0.00 97 995.1
20260831092111 20 204 0.0 0.0 0.00 0.00 0.00 97 995.4
20260831090607 20 154 0.0 1.6 0.00 0.00 0.00 96 995.3
20260831085105 20 192 0.0 0.0 0.00 0.00 0.00 96 995.0
20260831083605 20 180 0.0 1.6 0.00 0.00 0.00 96 995.0
20260831082105 20 174 0.0 0.0 0.00 0.00 0.00 95 994.9
20260831080603 20 138 0.0 1.6 0.00 0.00 0.00 94 995.0
20260831075100 21 173 0.0 1.6 0.00 0.00 0.00 93 995.0
20260831073555 21 156 1.6 3.2 0.00 0.00 0.00 92 995.1
20260831072053 21 188 3.2 4.8 0.00 0.00 0.00 91 995.2
20260831070551 21 234 1.6 4.8 0.00 0.00 0.00 91 995.4
20260831065050 21 219 3.2 4.8 0.00 0.00 0.00 91 995.5
20260831063548 21 208 0.0 1.6 0.00 0.00 0.00 94 995.4
20260831062048 20 171 0.0 0.0 0.00 0.00 0.00 95 995.0
20260831060543 20 167 0.0 1.6 0.00 0.00 0.00 95 994.9
20260831055041 21 178 0.0 0.0 0.00 0.00 0.00 94 994.9
20260831053538 20 181 0.0 0.0 0.00 0.00 0.00 94 995.3
20260831052037 20 176 0.0 0.0 0.00 0.00 0.00 94 995.1
20260831050535 21 148 1.6 1.6 0.00 0.00 0.00 93 995.3
20260831045034 21 191 0.0 0.0 0.00 0.00 0.00 92 995.3
20260831043531 21 170 0.0 0.0 0.00 0.00 0.00 92 995.5
20260831042026 22 192 4.8 4.8 0.00 0.00 0.00 88 995.6
20260831040522 22 146 4.8 4.8 0.00 0.00 0.00 89 995.4
20260831035020 21 118 3.2 3.2 0.00 2.41 2.41 90 995.2
20260831033517 23 158 3.2 6.4 0.00 2.41 2.41 85 995.2
20260831032013 23 155 1.6 3.2 0.00 2.41 2.41 84 995.3
20260831030511 23 189 1.6 3.2 0.00 2.41 2.41 84 995.1
20260831025010 23 212 3.2 4.8 0.00 2.41 2.41 84 995.5
20260831023509 23 209 1.6 4.8 0.00 2.41 2.41 84 995.6
20260831022005 23 189 3.2 4.8 0.00 2.41 2.41 83 995.2
20260831020500 23 224 4.8 6.4 0.00 2.41 2.41 81 994.7
20260831014957 23 261 3.2 4.8 0.00 2.41 2.41 82 995.1
20260831013455 23 240 1.6 6.4 0.00 2.41 2.41 82 994.8
20260831011955 23 208 4.8 9.7 0.00 2.41 2.41 83 995.0
20260831010452 23 174 8.0 9.7 0.00 2.41 2.41 83 994.8
20260831004949 23 262 4.8 11.3 0.00 2.41 2.41 83 994.7
20260831003449 23 181 1.6 11.3 0.00 2.41 2.41 83 994.6
20260831001949 23 174 1.6 4.8 0.00 2.41 2.41 83 994.5
20260831000448 23 220 9.7 12.9 0.00 2.41 2.41 83 994.6
20260830234943 23 246 6.4 12.9 0.00 2.41 2.41 82 994.8